Location: Brzeg
(50.8582°N, 17.4644°E)
Time: 05:28:00
(UTC+02:00)

ISS - Visible Passes

Search period start: 28 May 2018 00:00
Search period end: 07 June 2018 00:00
Orbit: 402 x 407 km, 51.6° (Epoch: 28 May)

Date Brightness Start Highest point End Pass type
(mag) Time Alt. Az. Time Alt. Az. Time Alt. Az.
28 May -1.7 01:07:23 10° W 01:08:21 16° W 01:08:21 16° W visible
28 May -3.8 22:38:28 10° W 22:41:45 81° N 22:45:02 10° E visible
29 May -3.2 00:15:01 10° W 00:17:42 38° SW 00:17:42 38° SW visible
29 May -3.6 21:46:14 10° W 21:49:30 75° N 21:52:47 10° E visible
29 May -3.8 23:22:45 10° WNW 23:25:59 59° SSW 23:27:06 35° SE visible
30 May -3.9 22:30:30 10° WNW 22:33:47 80° SSW 22:36:31 14° ESE visible
31 May -2.2 00:07:15 10° W 00:09:08 21° WSW 00:09:08 21° WSW visible
31 May -3.8 21:38:14 10° W 21:41:31 84° N 21:44:48 10° E visible
31 May -3.1 23:14:49 10° W 23:17:51 35° SSW 23:18:35 31° S visible
01 Jun -3.6 22:22:29 10° W 22:25:41 52° SSW 22:28:02 16° SE visible
01 Jun -1.4 23:59:58 10° WSW 00:00:40 12° WSW 00:00:40 12° WSW visible
02 Jun -2.2 23:07:02 10° W 23:09:33 20° SW 23:10:09 19° SSW visible
03 Jun -2.7 22:14:30 10° W 22:17:27 31° SSW 22:19:40 15° SSE visible
04 Jun -1.4 23:00:07 10° WSW 23:01:05 11° SW 23:01:50 10° SSW visible
05 Jun -1.8 22:06:46 10° W 22:09:03 18° SW 22:11:19 10° S visible
